Time,TemperatureF,DewpointF,PressureIn,WindDirection,WindDirectionDegrees,WindSpeedMPH,WindSpeedGustMPH,Humidity,HourlyPrecipIn,Conditions,Clouds,dailyrainin,SoftwareType,DateUTC
2013-03-20 00:13:00,59.2,33.0,30.13,ENE,68,8.0,8.0,37,0.00,,,0.00,weatherlink.com 1.10,2013-03-20 05:13:00,
2013-03-20 00:28:00,58.9,33.0,30.13,ENE,70,5.0,8.0,38,0.00,,,0.00,weatherlink.com 1.10,2013-03-20 05:28:00,
2013-03-20 00:43:00,58.3,33.0,30.13,ENE,61,4.0,8.0,38,0.00,,,0.00,weatherlink.com 1.10,2013-03-20 05:43:00,
2013-03-20 00:58:00,57.9,32.0,30.14,NE,35,2.0,8.0,38,0.00,,,0.00,weatherlink.com 1.10,2013-03-20 05:58:00,
2013-03-20 01:13:00,57.2,32.0,30.16,NE,54,3.0,6.0,39,0.00,,,0.00,weatherlink.com 1.10,2013-03-20 06:13:00,
2013-03-20 01:28:00,56.8,33.0,30.17,NE,53,2.0,6.0,40,0.00,,,0.00,weatherlink.com 1.10,2013-03-20 06:28:00,
2013-03-20 01:43:00,55.9,33.0,30.16,NNE,32,2.0,3.0,42,0.00,,,0.00,weatherlink.com 1.10,2013-03-20 06:43:00,
2013-03-20 01:58:00,55.5,33.0,30.17,NE,46,2.0,4.0,43,0.00,,,0.00,weatherlink.com 1.10,2013-03-20 06:58:00,
2013-03-20 02:13:00,55.2,33.0,30.18,NNE,27,1.0,6.0,44,0.00,,,0.00,weatherlink.com 1.10,2013-03-20 07:13:00,
2013-03-20 02:28:00,54.7,34.0,30.19,North,11,2.0,5.0,45,0.00,,,0.00,weatherlink.com 1.10,2013-03-20 07:28:00,
2013-03-20 02:43:00,54.5,34.0,30.19,North,359,4.0,6.0,46,0.00,,,0.00,weatherlink.com 1.10,2013-03-20 07:43:00,
2013-03-20 02:58:00,53.9,34.0,30.20,NNE,18,2.0,4.0,47,0.00,,,0.00,weatherlink.com 1.10,2013-03-20 07:58:00,
2013-03-20 03:13:00,53.0,34.0,30.20,NNE,20,3.0,5.0,49,0.00,,,0.00,weatherlink.com 1.10,2013-03-20 08:13:00,
2013-03-20 03:30:00,52.5,35.0,30.20,NE,35,7.0,9.0,51,0.00,,,0.00,weatherlink.com 1.10,2013-03-20 08:30:00,
2013-03-20 03:44:00,51.8,35.0,30.19,NE,48,2.0,5.0,53,0.00,,,0.00,weatherlink.com 1.10,2013-03-20 08:44:00,
2013-03-20 03:59:00,51.5,35.0,30.18,NE,45,4.0,6.0,53,0.00,,,0.00,weatherlink.com 1.10,2013-03-20 08:59:00,
2013-03-20 04:14:00,51.3,35.0,30.19,NE,46,1.0,5.0,54,0.00,,,0.00,weatherlink.com 1.10,2013-03-20 09:14:00,
2013-03-20 04:29:00,51.0,35.0,30.19,NNE,18,1.0,4.0,54,0.00,,,0.00,weatherlink.com 1.10,2013-03-20 09:29:00,
2013-03-20 04:44:00,50.6,35.0,30.19,NE,44,0.0,4.0,55,0.00,,,0.00,weatherlink.com 1.10,2013-03-20 09:44:00,
2013-03-20 04:59:00,50.3,35.0,30.20,NE,40,1.0,4.0,56,0.00,,,0.00,weatherlink.com 1.10,2013-03-20 09:59:00,
2013-03-20 05:14:00,50.1,35.0,30.20,ENE,65,3.0,5.0,56,0.00,,,0.00,weatherlink.com 1.10,2013-03-20 10:14:00,
2013-03-20 05:29:00,50.8,35.0,30.20,ENE,63,5.0,7.0,55,0.00,,,0.00,weatherlink.com 1.10,2013-03-20 10:29:00,
2013-03-20 05:44:00,51.1,35.0,30.21,NE,56,5.0,7.0,54,0.00,,,0.00,weatherlink.com 1.10,2013-03-20 10:44:00,
2013-03-20 05:59:00,50.6,35.0,30.22,NE,37,4.0,6.0,55,0.00,,,0.00,weatherlink.com 1.10,2013-03-20 10:59:00,
2013-03-20 06:14:00,50.2,35.0,30.23,NE,49,2.0,5.0,56,0.00,,,0.00,weatherlink.com 1.10,2013-03-20 11:14:00,
2013-03-20 06:29:00,49.9,35.0,30.24,North,349,2.0,5.0,57,0.00,,,0.00,weatherlink.com 1.10,2013-03-20 11:29:00,
2013-03-20 06:44:00,49.5,35.0,30.25,North,5,1.0,5.0,58,0.00,,,0.00,weatherlink.com 1.10,2013-03-20 11:44:00,
2013-03-20 06:59:00,49.2,35.0,30.26,North,359,1.0,2.0,58,0.00,,,0.00,weatherlink.com 1.10,2013-03-20 11:59:00,
2013-03-20 07:14:00,48.8,35.0,30.27,North,11,1.0,2.0,59,0.00,,,0.00,weatherlink.com 1.10,2013-03-20 12:14:00,
2013-03-20 07:29:00,48.5,35.0,30.28,NNE,20,1.0,2.0,60,0.00,,,0.00,weatherlink.com 1.10,2013-03-20 12:29:00,
2013-03-20 07:44:00,47.9,35.0,30.28,North,356,1.0,2.0,62,0.00,,,0.00,weatherlink.com 1.10,2013-03-20 12:44:00,
2013-03-20 07:59:00,48.5,35.0,30.29,North,8,1.0,3.0,61,0.00,,,0.00,weatherlink.com 1.10,2013-03-20 12:59:00,
2013-03-20 08:14:00,49.7,36.0,30.29,North,9,2.0,4.0,60,0.00,,,0.00,weatherlink.com 1.10,2013-03-20 13:14:00,
2013-03-20 08:29:00,50.5,36.0,30.30,NNE,19,2.0,4.0,59,0.00,,,0.00,weatherlink.com 1.10,2013-03-20 13:29:00,
2013-03-20 08:44:00,51.2,37.0,30.31,NNE,16,4.0,7.0,58,0.00,,,0.00,weatherlink.com 1.10,2013-03-20 13:44:00,
2013-03-20 08:59:00,52.1,36.0,30.31,NNE,18,2.0,7.0,55,0.00,,,0.00,weatherlink.com 1.10,2013-03-20 13:59:00,
2013-03-20 09:14:00,53.0,36.0,30.32,NE,53,4.0,6.0,53,0.00,,,0.00,weatherlink.com 1.10,2013-03-20 14:14:00,
2013-03-20 09:30:00,53.6,36.0,30.33,NNE,24,7.0,7.0,52,0.00,,,0.00,weatherlink.com 1.10,2013-03-20 14:30:00,
2013-03-20 09:45:00,54.3,35.0,30.33,NE,50,2.0,9.0,49,0.00,,,0.00,weatherlink.com 1.10,2013-03-20 14:45:00,
2013-03-20 10:00:00,54.9,35.0,30.33,NE,53,7.0,8.0,47,0.00,,,0.00,weatherlink.com 1.10,2013-03-20 15:00:00,
2013-03-20 10:15:00,56.3,35.0,30.33,ENE,60,2.0,5.0,45,0.00,,,0.00,weatherlink.com 1.10,2013-03-20 15:15:00,
2013-03-20 10:30:00,57.0,35.0,30.33,North,9,1.0,6.0,44,0.00,,,0.00,weatherlink.com 1.10,2013-03-20 15:30:00,
2013-03-20 10:45:00,57.9,36.0,30.33,NNE,27,3.0,5.0,44,0.00,,,0.00,weatherlink.com 1.10,2013-03-20 15:45:00,
2013-03-20 11:00:00,59.0,35.0,30.33,ENE,78,2.0,6.0,41,0.00,,,0.00,weatherlink.com 1.10,2013-03-20 16:00:00,
2013-03-20 11:15:00,60.0,35.0,30.32,NNE,21,3.0,7.0,40,0.00,,,0.00,weatherlink.com 1.10,2013-03-20 16:15:00,
2013-03-20 11:30:00,61.0,36.0,30.32,NNE,13,2.0,6.0,40,0.00,,,0.00,weatherlink.com 1.10,2013-03-20 16:30:00,
2013-03-20 11:45:00,61.7,36.0,30.32,NNE,28,6.0,8.0,39,0.00,,,0.00,weatherlink.com 1.10,2013-03-20 16:45:00,
2013-03-20 12:00:00,62.1,32.0,30.32,NE,53,6.0,12.0,33,0.00,,,0.00,weatherlink.com 1.10,2013-03-20 17:00:00,
2013-03-20 12:15:00,63.8,32.0,30.31,ENE,76,4.0,9.0,30,0.00,,,0.00,weatherlink.com 1.10,2013-03-20 17:15:00,
2013-03-20 12:30:00,64.1,30.0,30.30,NNE,18,3.0,11.0,28,0.00,,,0.00,weatherlink.com 1.10,2013-03-20 17:30:00,
2013-03-20 12:45:00,64.3,27.0,30.31,ENE,69,10.0,11.0,24,0.00,,,0.00,weatherlink.com 1.10,2013-03-20 17:45:00,
2013-03-20 13:00:00,64.4,31.0,30.30,NE,37,0.0,11.0,29,0.00,,,0.00,weatherlink.com 1.10,2013-03-20 18:00:00,
2013-03-20 13:15:00,64.8,31.0,30.29,NNE,18,5.0,12.0,28,0.00,,,0.00,weatherlink.com 1.10,2013-03-20 18:15:00,
2013-03-20 13:30:00,65.0,30.0,30.28,NE,41,5.0,10.0,27,0.00,,,0.00,weatherlink.com 1.10,2013-03-20 18:30:00,
2013-03-20 13:45:00,65.0,31.0,30.27,ENE,58,7.0,9.0,28,0.00,,,0.00,weatherlink.com 1.10,2013-03-20 18:45:00,
2013-03-20 14:00:00,65.5,30.0,30.26,NNW,340,3.0,8.0,27,0.00,,,0.00,weatherlink.com 1.10,2013-03-20 19:00:00,
2013-03-20 14:15:00,65.3,30.0,30.25,ENE,63,6.0,12.0,27,0.00,,,0.00,weatherlink.com 1.10,2013-03-20 19:15:00,
2013-03-20 14:30:00,65.2,28.0,30.24,ENE,63,5.0,12.0,25,0.00,,,0.00,weatherlink.com 1.10,2013-03-20 19:30:00,
2013-03-20 14:45:00,65.8,30.0,30.22,NNW,335,4.0,14.0,26,0.00,,,0.00,weatherlink.com 1.10,2013-03-20 19:45:00,
2013-03-20 15:00:00,66.5,32.0,30.21,NE,55,2.0,8.0,28,0.00,,,0.00,weatherlink.com 1.10,2013-03-20 20:00:00,
2013-03-20 15:15:00,66.1,29.0,30.21,NNE,27,3.0,12.0,25,0.00,,,0.00,weatherlink.com 1.10,2013-03-20 20:15:00,
2013-03-20 15:30:00,65.9,29.0,30.20,NNE,18,6.0,14.0,25,0.00,,,0.00,weatherlink.com 1.10,2013-03-20 20:30:00,
2013-03-20 15:45:00,66.1,29.0,30.19,ENE,69,5.0,8.0,25,0.00,,,0.00,weatherlink.com 1.10,2013-03-20 20:45:00,
2013-03-20 16:00:00,66.2,27.0,30.19,NNE,16,4.0,10.0,23,0.00,,,0.00,weatherlink.com 1.10,2013-03-20 21:00:00,
2013-03-20 16:15:00,66.4,28.0,30.18,North,349,3.0,6.0,24,0.00,,,0.00,weatherlink.com 1.10,2013-03-20 21:15:00,
2013-03-20 16:30:00,66.8,27.0,30.17,NE,53,0.0,8.0,22,0.00,,,0.00,weatherlink.com 1.10,2013-03-20 21:30:00,
2013-03-20 16:45:00,66.8,28.0,30.17,NNW,346,3.0,9.0,23,0.00,,,0.00,weatherlink.com 1.10,2013-03-20 21:45:00,
2013-03-20 17:00:00,66.7,30.0,30.16,NNE,18,5.0,6.0,25,0.00,,,0.00,weatherlink.com 1.10,2013-03-20 22:00:00,
2013-03-20 17:15:00,66.9,28.0,30.15,ENE,58,3.0,11.0,23,0.00,,,0.00,weatherlink.com 1.10,2013-03-20 22:15:00,
2013-03-20 17:30:00,66.3,28.0,30.14,North,359,1.0,9.0,24,0.00,,,0.00,weatherlink.com 1.10,2013-03-20 22:30:00,
2013-03-20 17:45:00,66.2,28.0,30.14,NW,312,0.0,7.0,24,0.00,,,0.00,weatherlink.com 1.10,2013-03-20 22:45:00,
2013-03-20 18:00:00,66.6,28.0,30.14,NNE,27,0.0,5.0,23,0.00,,,0.00,weatherlink.com 1.10,2013-03-20 23:00:00,
2013-03-20 18:16:00,66.0,28.0,30.13,NE,41,1.0,6.0,24,0.00,,,0.00,weatherlink.com 1.10,2013-03-20 23:16:00,
2013-03-20 18:31:00,65.5,29.0,30.12,ENE,68,2.0,5.0,25,0.00,,,0.00,weatherlink.com 1.10,2013-03-20 23:31:00,
2013-03-20 18:46:00,65.2,28.0,30.12,NNW,345,4.0,6.0,25,0.00,,,0.00,weatherlink.com 1.10,2013-03-20 23:46:00,
2013-03-20 19:01:00,64.4,29.0,30.11,NNE,18,2.0,5.0,26,0.00,,,0.00,weatherlink.com 1.10,2013-03-21 00:01:00,
2013-03-20 19:16:00,63.4,29.0,30.11,NNE,25,2.0,4.0,27,0.00,,,0.00,weatherlink.com 1.10,2013-03-21 00:16:00,
2013-03-20 19:31:00,62.7,28.0,30.11,NE,41,4.0,4.0,27,0.00,,,0.00,weatherlink.com 1.10,2013-03-21 00:31:00,
2013-03-20 19:46:00,62.0,27.0,30.11,ENE,60,3.0,4.0,27,0.00,,,0.00,weatherlink.com 1.10,2013-03-21 00:46:00,
2013-03-20 20:01:00,61.6,28.0,30.11,East,83,2.0,3.0,28,0.00,,,0.00,weatherlink.com 1.10,2013-03-21 01:01:00,
2013-03-20 20:16:00,61.4,28.0,30.11,ENE,57,0.0,2.0,28,0.00,,,0.00,weatherlink.com 1.10,2013-03-21 01:16:00,
2013-03-20 20:31:00,61.1,28.0,30.11,East,93,1.0,3.0,29,0.00,,,0.00,weatherlink.com 1.10,2013-03-21 01:31:00,
2013-03-20 20:46:00,60.8,28.0,30.11,East,98,1.0,3.0,29,0.00,,,0.00,weatherlink.com 1.10,2013-03-21 01:46:00,
2013-03-20 21:46:00,58.1,29.0,30.09,ESE,103,2.0,4.0,33,0.00,,,0.00,weatherlink.com 1.10,2013-03-21 02:46:00,
2013-03-20 22:16:00,57.4,29.0,30.08,East,96,2.0,4.0,34,0.00,,,0.00,weatherlink.com 1.10,2013-03-21 03:16:00,
2013-03-20 22:31:00,57.0,29.0,30.08,ESE,114,2.0,4.0,35,0.00,,,0.00,weatherlink.com 1.10,2013-03-21 03:31:00,
2013-03-20 22:46:00,56.1,30.0,30.07,ESE,113,0.0,2.0,37,0.00,,,0.00,weatherlink.com 1.10,2013-03-21 03:46:00,
2013-03-20 23:01:00,55.8,30.0,30.07,SE,143,2.0,3.0,38,0.00,,,0.00,weatherlink.com 1.10,2013-03-21 04:01:00,
2013-03-20 23:16:00,55.3,30.0,30.07,SE,141,1.0,2.0,38,0.00,,,0.00,weatherlink.com 1.10,2013-03-21 04:16:00,
2013-03-20 23:31:00,55.5,30.0,30.06,SSE,151,1.0,4.0,38,0.00,,,0.00,weatherlink.com 1.10,2013-03-21 04:31:00,
2013-03-20 23:46:00,55.5,29.0,30.06,SE,134,2.0,3.0,37,0.00,,,0.00,weatherlink.com 1.10,2013-03-21 04:46:00,